Regional Weather Roundup
Issued by NWS Newport/Morehead, NC

Current Version | Previous Version | Text Only | Print | Product List | Glossary Off
Versions: 1 2 3 4 5 6 7 8 9 10 11 12 13 14 15 16 17 18 19 20 21 22 23 24 25 26 27 28 29 30 31 32 33 34 35 36 37 38 39 40 41 42 43 44 45 46 47 48 49 50

321
ASUS42 KMHX 240325
RWRMHX
WEATHER ROUNDUP FOR EASTERN NORTH CAROLINA
NATIONAL WEATHER SERVICE NEWPORT/MOREHEAD CITY NC
1000 PM EST THU NOV 23 2017

NOTE: "FAIR" INDICATES FEW OR NO CLOUDS BELOW 12,000 FEET
WITH NO SIGNIFICANT WEATHER AND/OR OBSTRUCTIONS TO VISIBILITY

NCZ015>017-031-032-045>047-102-103-240400-
NORTH COAST

CITY           SKY/WX    TMP DP  RH WIND       PRES   REMARKS
EDENTON        PTCLDY    41  37  86 CALM      30.09S
ELIZABETH CITY CLOUDY    43  37  79 N6        30.08F
KITTY HAWK     CLOUDY    45  36  70 CALM      30.06R
MANTEO         CLOUDY    44  38  78 NE5       30.07S

$$

NCZ045>047-081-094-103-104-240400-
CENTRAL COAST

CITY           SKY/WX    TMP DP  RH WIND       PRES   REMARKS
FRISCO         CLOUDY    50  42  74 VRB7      30.05S

$$

NCZ095-097-098-100-101-240400-
SOUTHERN COAST

CITY           SKY/WX    TMP DP  RH WIND       PRES   REMARKS
BEAUFORT       CLOUDY    48  43  82 NE7       30.05S
CEDAR ISLAND   NOT AVBL
JACKSONVILLE   NOT AVBL
PINEY ISLAND   NOT AVBL
WILMINGTON     CLOUDY    46  41  82 NE8       30.04F


$$

NCZ011>013-027>030-043-044-078>080-089-090>093-098-240400-
COASTAL PLAIN

CITY           SKY/WX    TMP DP  RH WIND       PRES   REMARKS
AHOSKIE        PTCLDY    32  32  99 CALM      30.09S
CLINTON        CLOUDY    42  39  89 CALM      30.06F
ELIZABETHTOWN  NOT AVBL
GOLDSBORO      MOCLDY    41  35  81 CALM      30.05F
GREENVILLE     CLOUDY    37  37 100 CALM      30.09S
HAVELOCK       NOT AVBL
KENANSVILLE    CLOUDY    41  37  87 CALM      30.07S
KINSTON        CLOUDY    41  37  87 CALM      30.08S
NEW BERN       CLOUDY    43  40  89 NE7       30.08R
RICHLANDS      CLOUDY    44  39  82 N6        30.06S
ROCKY MOUNT    PTCLDY    34  33  96 CALM      30.09R
WASHINGTON     CLOUDY    40  37  86 CALM      30.08R
WHITEVILLE     CLOUDY    45  38  77 NE3       30.04S

$$

AMZ130-135-150-152-154-156-158-170-250-252-270-ANZ085-086-088-633-658-670-240400-
MARINE OBSERVATIONS

STATION/POSITION TIME  TEMP    WIND        PRES    WAVE   SWELL
                       AIR SEA DIR/SP/G            HT/PER HT/PER
                 (UTC) (F)     (DEG/KT/KT) (MB)    (FT/S) (FT/S)
CHESAPEAKE LIGHT NOT AVBL
64 E VA BEACH    0250   47 59  340/  8/ 10 1018.5    5/10   5/10
DUCK             0300   47 57   20/  5/  8 1017.8
2 E DUCK         0300      60                N/A     3/11   2/11
OREGON INLET     0300   48 58  360/  5/  9 1018.0
13E OREGON INLT  0248      63                N/A     5/ 9   5/ 9
HATTERAS CG      0300   50 58   30/ 11/ 15 1017.5
DIAMOND BUOY     0310   57 71   10/ 12/ 16 1017.4
CAPE LOOKOUT     0300           10/ 14/ 18 1017.5
BEAUFORT LAB     0300   48 59   20/  9/ 12 1017.5
30 SE NEW RVR IN 0308   58 67   60/ 14/ 17 1017.0
30 SE NEW RVR IN 0300      67                N/A     5/ 9   2/11
27 SE WRIGHTSVLE 0308   59 72   70/ 14/ 21 1016.4
5 SE WRIGHTSVLE  0308   53 63   40/ 14/ 17 1016.7
225 S CAPE HAT   0250   71 77   70/ 19/ 23 1012.2    9/ 9   3/11
41 SE CHARLESTON 0310   66 75   40/ 21/ 25 1013.5

$$




USA.gov is the U.S. government's official web portal to all federal, state and local government web resources and services.